Time,TemperatureF,DewpointF,PressureIn,WindDirection,WindDirectionDegrees,WindSpeedMPH,WindSpeedGustMPH,Humidity,HourlyPrecipIn,Conditions,Clouds,dailyrainin,SoftwareType,DateUTC
2013-04-24 00:01:00,62.9,39.4,29.88,SSE,161,1.4,4.6,42,0.00,BKN,,0.00,WeatherDisplay:10.37,2013-04-24 04:01:00,
2013-04-24 00:06:00,62.9,39.4,29.88,SSE,148,2.4,4.0,42,0.00,OVC,,0.00,WeatherDisplay:10.37,2013-04-24 04:06:00,
2013-04-24 00:11:00,62.9,40.0,29.88,SSW,194,6.5,11.5,43,0.00,OVC,,0.00,WeatherDisplay:10.37,2013-04-24 04:11:00,
2013-04-24 00:16:00,63.0,40.1,29.88,SSE,165,3.4,5.8,43,0.00,OVC,,0.00,WeatherDisplay:10.37,2013-04-24 04:16:00,
2013-04-24 00:21:00,63.0,39.5,29.88,South,171,4.4,5.8,42,0.00,OVC,,0.00,WeatherDisplay:10.37,2013-04-24 04:21:00,
2013-04-24 00:26:00,63.0,39.5,29.87,SSE,160,5.0,6.9,42,0.00,OVC,,0.00,WeatherDisplay:10.37,2013-04-24 04:26:00,
2013-04-24 00:31:00,63.0,39.5,29.87,South,186,2.0,4.0,42,0.00,OVC,,0.00,WeatherDisplay:10.37,2013-04-24 04:31:00,
2013-04-24 00:36:00,62.9,39.4,29.86,SSW,193,2.3,8.1,42,0.00,OVC,,0.00,WeatherDisplay:10.37,2013-04-24 04:36:00,
2013-04-24 00:41:00,62.8,39.4,29.86,SSW,211,2.6,7.0,42,0.00,OVC,,0.00,WeatherDisplay:10.37,2013-04-24 04:41:00,
2013-04-24 00:46:00,62.8,39.4,29.86,South,182,3.3,10.4,42,0.00,OVC,,0.00,WeatherDisplay:10.37,2013-04-24 04:46:00,
2013-04-24 00:51:00,62.8,39.4,29.86,South,169,4.1,5.8,42,0.00,OVC,,0.00,WeatherDisplay:10.37,2013-04-24 04:51:00,
2013-04-24 00:56:00,62.8,38.7,29.86,SSE,155,3.0,9.2,41,0.00,OVC,,0.00,WeatherDisplay:10.37,2013-04-24 04:56:00,
2013-04-24 01:01:00,62.7,39.3,29.85,South,173,3.9,6.9,42,0.00,OVC,,0.00,WeatherDisplay:10.37,2013-04-24 05:01:00,
2013-04-24 01:06:00,62.6,39.2,29.85,SSE,166,5.6,10.4,42,0.00,OVC,,0.00,WeatherDisplay:10.37,2013-04-24 05:06:00,
2013-04-24 01:11:00,62.5,39.1,29.85,SSE,157,3.5,6.9,42,0.00,OVC,,0.00,WeatherDisplay:10.37,2013-04-24 05:11:00,
2013-04-24 01:16:00,62.4,39.6,29.85,SE,143,3.8,8.1,43,0.00,OVC,,0.00,WeatherDisplay:10.37,2013-04-24 05:16:00,
2013-04-24 01:21:00,62.3,38.9,29.84,South,173,4.2,8.1,42,0.00,OVC,,0.00,WeatherDisplay:10.37,2013-04-24 05:21:00,
2013-04-24 01:26:00,62.2,39.4,29.84,South,174,3.8,5.8,43,0.00,OVC,,0.00,WeatherDisplay:10.37,2013-04-24 05:26:00,
2013-04-24 01:31:00,62.0,39.2,29.84,SSE,148,5.6,9.2,43,0.00,OVC,,0.00,WeatherDisplay:10.37,2013-04-24 05:31:00,
2013-04-24 01:36:00,61.8,39.1,29.84,South,180,2.8,3.5,43,0.00,OVC,,0.00,WeatherDisplay:10.37,2013-04-24 05:36:00,
2013-04-24 01:41:00,61.6,38.9,29.84,South,183,3.6,6.9,43,0.00,OVC,,0.00,WeatherDisplay:10.37,2013-04-24 05:41:00,
2013-04-24 01:46:00,61.5,38.8,29.84,South,177,2.6,4.6,43,0.00,OVC,,0.00,WeatherDisplay:10.37,2013-04-24 05:46:00,
2013-04-24 01:51:00,61.3,39.2,29.84,SSE,167,3.5,9.2,44,0.00,OVC,,0.00,WeatherDisplay:10.37,2013-04-24 05:51:00,
2013-04-24 01:56:00,61.2,39.1,29.84,South,181,5.2,8.1,44,0.00,OVC,,0.00,WeatherDisplay:10.37,2013-04-24 05:56:00,
2013-04-24 02:01:00,61.0,38.9,29.83,South,173,2.3,6.9,44,0.00,OVC,,0.00,WeatherDisplay:10.37,2013-04-24 06:01:00,
2013-04-24 02:06:00,60.9,38.8,29.83,SSE,164,2.8,6.9,44,0.00,OVC,,0.00,WeatherDisplay:10.37,2013-04-24 06:06:00,
2013-04-24 02:11:00,60.7,39.2,29.83,South,175,1.7,3.5,45,0.00,OVC,,0.00,WeatherDisplay:10.37,2013-04-24 06:11:00,
2013-04-24 02:16:00,60.6,39.1,29.83,South,184,2.6,6.9,45,0.00,OVC,,0.00,WeatherDisplay:10.37,2013-04-24 06:16:00,
2013-04-24 02:21:00,60.5,39.0,29.83,SSE,161,3.6,6.9,45,0.00,OVC,,0.00,WeatherDisplay:10.37,2013-04-24 06:21:00,
2013-04-24 02:26:00,60.4,39.5,29.83,SSE,150,3.0,7.0,46,0.00,OVC,,0.00,WeatherDisplay:10.37,2013-04-24 06:26:00,
2013-04-24 02:31:00,60.4,39.5,29.83,South,169,2.1,3.5,46,0.00,OVC,,0.00,WeatherDisplay:10.37,2013-04-24 06:31:00,
2013-04-24 02:36:00,60.4,39.5,29.83,SSE,165,5.5,6.9,46,0.00,OVC,,0.00,WeatherDisplay:10.37,2013-04-24 06:36:00,
2013-04-24 02:41:00,60.4,39.5,29.83,South,181,7.0,11.5,46,0.00,OVC,,0.00,WeatherDisplay:10.37,2013-04-24 06:41:00,
2013-04-24 02:46:00,60.4,39.5,29.83,South,172,4.8,7.0,46,0.00,OVC,,0.00,WeatherDisplay:10.37,2013-04-24 06:46:00,
2013-04-24 02:51:00,60.4,39.5,29.83,South,175,2.3,5.8,46,0.00,OVC,,0.00,WeatherDisplay:10.37,2013-04-24 06:51:00,
2013-04-24 02:56:00,60.4,40.1,29.82,SSW,194,5.7,6.9,47,0.00,OVC,,0.00,WeatherDisplay:10.37,2013-04-24 06:56:00,
2013-04-24 03:01:00,60.4,39.5,29.83,SSW,204,5.3,8.1,46,0.00,OVC,,0.00,WeatherDisplay:10.37,2013-04-24 07:01:00,
2013-04-24 03:06:00,60.4,40.1,29.83,South,180,4.3,6.9,47,0.00,OVC,,0.00,WeatherDisplay:10.37,2013-04-24 07:06:00,
2013-04-24 03:11:00,60.3,40.0,29.82,South,174,4.7,5.8,47,0.00,OVC,,0.00,WeatherDisplay:10.37,2013-04-24 07:11:00,
2013-04-24 03:16:00,60.3,40.0,29.82,SSE,165,4.0,7.0,47,0.00,OVC,,0.00,WeatherDisplay:10.37,2013-04-24 07:16:00,
2013-04-24 03:21:00,60.2,39.3,29.82,South,190,4.3,5.8,46,0.00,OVC,,0.00,WeatherDisplay:10.37,2013-04-24 07:21:00,
2013-04-24 03:26:00,60.1,40.3,29.82,South,189,5.7,10.4,48,0.00,OVC,,0.00,WeatherDisplay:10.37,2013-04-24 07:26:00,
2013-04-24 03:31:00,60.0,40.2,29.82,South,171,5.4,8.1,48,0.00,OVC,,0.00,WeatherDisplay:10.37,2013-04-24 07:31:00,
2013-04-24 03:36:00,60.0,39.7,29.82,SSE,150,5.1,8.1,47,0.00,OVC,,0.00,WeatherDisplay:10.37,2013-04-24 07:36:00,
2013-04-24 03:41:00,60.0,40.8,29.82,SSE,160,5.0,6.9,49,0.00,OVC,,0.00,WeatherDisplay:10.37,2013-04-24 07:41:00,
2013-04-24 03:46:00,59.9,40.7,29.82,SSW,213,2.2,5.8,49,0.00,OVC,,0.00,WeatherDisplay:10.37,2013-04-24 07:46:00,
2013-04-24 03:51:00,59.8,40.6,29.83,SSE,168,3.2,4.6,49,0.00,OVC,,0.00,WeatherDisplay:10.37,2013-04-24 07:51:00,
2013-04-24 03:56:00,59.8,40.6,29.83,South,172,7.7,12.7,49,0.00,OVC,,0.00,WeatherDisplay:10.37,2013-04-24 07:56:00,
2013-04-24 04:01:00,59.9,41.7,29.83,SW,216,4.1,5.8,51,0.00,-RA,,0.00,WeatherDisplay:10.37,2013-04-24 08:01:00,
2013-04-24 04:06:00,59.8,42.1,29.83,SSW,205,4.0,8.1,52,0.00,-RA,,0.00,WeatherDisplay:10.37,2013-04-24 08:06:00,
2013-04-24 04:11:00,59.7,42.0,29.83,SSW,196,2.0,3.5,52,0.00,-RA,,0.00,WeatherDisplay:10.37,2013-04-24 08:11:00,
2013-04-24 04:16:00,59.6,42.4,29.83,SSW,209,5.9,9.2,53,0.00,-RA,,0.00,WeatherDisplay:10.37,2013-04-24 08:16:00,
2013-04-24 04:21:00,59.5,44.2,29.83,SSW,194,4.7,8.1,57,0.00,-RA,,0.00,WeatherDisplay:10.37,2013-04-24 08:21:00,
2013-04-24 04:26:00,58.9,45.9,29.84,SW,217,5.3,6.9,62,0.01,-RA,,0.01,WeatherDisplay:10.37,2013-04-24 08:26:00,
2013-04-24 04:31:00,58.2,47.3,29.83,South,178,4.2,6.9,67,0.02,-RA,,0.02,WeatherDisplay:10.37,2013-04-24 08:31:00,
2013-04-24 04:36:00,57.4,47.7,29.84,SSW,193,3.4,4.6,70,0.04,-RA,,0.04,WeatherDisplay:10.37,2013-04-24 08:36:00,
2013-04-24 04:41:00,56.4,48.2,29.83,South,175,5.2,9.2,74,0.07,-RA,,0.07,WeatherDisplay:10.37,2013-04-24 08:41:00,
2013-04-24 04:46:00,55.6,48.8,29.83,South,187,2.3,3.5,78,0.08,-RA,,0.08,WeatherDisplay:10.37,2013-04-24 08:46:00,
2013-04-24 04:51:00,54.9,48.8,29.83,SSW,200,4.3,8.1,80,0.11,-RA,,0.11,WeatherDisplay:10.37,2013-04-24 08:51:00,
2013-04-24 04:56:00,54.2,48.8,29.82,SSE,159,5.7,6.9,82,0.13,-RA,,0.13,WeatherDisplay:10.37,2013-04-24 08:56:00,
2013-04-24 05:01:00,53.6,48.9,29.82,SSW,207,2.8,6.9,84,0.15,RA,,0.15,WeatherDisplay:10.37,2013-04-24 09:01:00,
2013-04-24 05:06:00,53.2,48.8,29.82,South,173,2.4,4.6,85,0.16,RA,,0.16,WeatherDisplay:10.37,2013-04-24 09:06:00,
2013-04-24 05:11:00,52.9,48.8,29.82,South,173,0.6,2.3,86,0.17,RA,,0.17,WeatherDisplay:10.37,2013-04-24 09:11:00,
2013-04-24 05:16:00,52.6,48.8,29.81,South,171,2.0,7.0,87,0.17,RA,,0.17,WeatherDisplay:10.37,2013-04-24 09:16:00,
2013-04-24 05:21:00,52.3,48.9,29.81,South,169,4.5,6.9,88,0.17,OVC,,0.17,WeatherDisplay:10.37,2013-04-24 09:21:00,
2013-04-24 05:26:00,52.1,48.7,29.81,SSE,166,4.6,8.1,88,0.16,OVC,,0.17,WeatherDisplay:10.37,2013-04-24 09:26:00,
2013-04-24 05:31:00,52.0,48.9,29.81,SE,135,3.7,4.6,89,0.15,OVC,,0.17,WeatherDisplay:10.37,2013-04-24 09:31:00,
2013-04-24 05:36:00,51.8,48.7,29.81,South,171,3.3,7.0,89,0.13,OVC,,0.17,WeatherDisplay:10.37,2013-04-24 09:36:00,
2013-04-24 05:41:00,51.7,48.6,29.81,South,189,3.1,5.8,89,0.12,RA,,0.19,WeatherDisplay:10.37,2013-04-24 09:41:00,
2013-04-24 05:46:00,51.6,48.5,29.80,SE,140,5.7,11.5,89,0.17,RA,,0.25,WeatherDisplay:10.37,2013-04-24 09:46:00,
2013-04-24 05:51:00,51.4,48.6,29.80,SSE,159,5.4,9.2,90,0.14,RA,,0.25,WeatherDisplay:10.37,2013-04-24 09:51:00,
2013-04-24 05:56:00,51.2,48.7,29.79,South,178,3.9,5.8,91,0.12,OVC,,0.25,WeatherDisplay:10.37,2013-04-24 09:56:00,
2013-04-24 06:01:00,51.2,49.0,29.80,SSE,159,3.2,8.1,92,0.10,OVC,,0.25,WeatherDisplay:10.37,2013-04-24 10:01:00,
2013-04-24 06:06:00,51.2,49.0,29.79,South,182,4.5,8.1,92,0.09,OVC,,0.25,WeatherDisplay:10.37,2013-04-24 10:06:00,
2013-04-24 06:11:00,51.3,49.1,29.80,SSE,163,5.9,10.4,92,0.08,OVC,,0.25,WeatherDisplay:10.37,2013-04-24 10:11:00,
2013-04-24 06:16:00,51.3,49.1,29.79,SSE,148,4.4,8.1,92,0.08,OVC,,0.25,WeatherDisplay:10.37,2013-04-24 10:16:00,
2013-04-24 06:21:00,51.4,49.2,29.80,SSE,154,2.4,11.0,92,0.08,OVC,,0.25,WeatherDisplay:10.37,2013-04-24 10:21:00,
2013-04-24 06:26:00,51.5,49.0,29.80,SSE,165,3.5,5.8,91,0.08,OVC,,0.25,WeatherDisplay:10.37,2013-04-24 10:26:00,
2013-04-24 06:31:00,51.5,48.7,29.79,South,174,4.7,6.9,90,0.08,OVC,,0.25,WeatherDisplay:10.37,2013-04-24 10:31:00,
2013-04-24 06:36:00,51.7,48.9,29.80,SSW,197,5.0,10.4,90,0.08,OVC,,0.25,WeatherDisplay:10.37,2013-04-24 10:36:00,
2013-04-24 06:41:00,51.8,48.7,29.79,SSE,150,4.3,9.2,89,0.06,OVC,,0.25,WeatherDisplay:10.37,2013-04-24 10:41:00,
2013-04-24 06:46:00,52.0,48.9,29.79,SSE,157,1.6,7.0,89,0.00,OVC,,0.25,WeatherDisplay:10.37,2013-04-24 10:46:00,
2013-04-24 06:51:00,52.1,49.3,29.80,SW,220,4.8,9.2,90,0.00,OVC,,0.25,WeatherDisplay:10.37,2013-04-24 10:51:00,
2013-04-24 06:56:00,52.1,49.3,29.80,SSE,153,2.9,6.9,90,0.00,OVC,,0.25,WeatherDisplay:10.37,2013-04-24 10:56:00,
2013-04-24 07:01:00,52.2,49.7,29.80,South,178,5.0,8.1,91,0.02,-RA,,0.27,WeatherDisplay:10.37,2013-04-24 11:01:00,
2013-04-24 07:06:00,52.2,49.9,29.79,SSE,166,5.4,8.1,92,0.02,-RA,,0.27,WeatherDisplay:10.37,2013-04-24 11:06:00,
2013-04-24 07:11:00,52.1,49.8,29.78,SSE,157,3.8,6.9,92,0.02,-RA,,0.27,WeatherDisplay:10.37,2013-04-24 11:11:00,
2013-04-24 07:16:00,52.1,50.1,29.78,SSE,148,4.9,8.1,93,0.02,-RA,,0.27,WeatherDisplay:10.37,2013-04-24 11:16:00,
2013-04-24 07:21:00,52.0,50.0,29.78,SSE,157,4.9,6.9,93,0.02,-RA,,0.27,WeatherDisplay:10.37,2013-04-24 11:21:00,
2013-04-24 07:26:00,52.0,50.0,29.78,SSE,150,3.0,4.6,93,0.02,-RA,,0.27,WeatherDisplay:10.37,2013-04-24 11:26:00,
2013-04-24 07:31:00,52.1,50.4,29.78,South,185,5.6,9.2,94,0.02,-RA,,0.27,WeatherDisplay:10.37,2013-04-24 11:31:00,
2013-04-24 07:36:00,52.1,50.4,29.78,SSE,156,6.3,9.2,94,0.02,-RA,,0.27,WeatherDisplay:10.37,2013-04-24 11:36:00,
2013-04-24 07:41:00,52.3,50.6,29.78,South,180,4.6,13.0,94,0.02,-RA,,0.27,WeatherDisplay:10.37,2013-04-24 11:41:00,
2013-04-24 07:46:00,52.5,50.8,29.77,South,171,3.0,6.9,94,0.02,-RA,,0.27,WeatherDisplay:10.37,2013-04-24 11:46:00,
2013-04-24 07:51:00,52.8,50.8,29.77,SSE,156,6.0,11.5,93,0.02,-RA,,0.27,WeatherDisplay:10.37,2013-04-24 11:51:00,
2013-04-24 07:56:00,53.0,51.0,29.77,South,170,8.4,13.8,93,0.02,-RA,,0.27,WeatherDisplay:10.37,2013-04-24 11:56:00,
2013-04-24 08:01:00,53.2,50.6,29.76,South,174,5.5,11.5,91,0.00,-RA,,0.27,WeatherDisplay:10.37,2013-04-24 12:01:00,
2013-04-24 08:06:00,53.4,50.5,29.77,SSE,157,6.3,9.2,90,0.00,-RA,,0.27,WeatherDisplay:10.37,2013-04-24 12:06:00,
2013-04-24 08:11:00,53.6,50.7,29.77,SSW,204,6.5,8.1,90,0.00,-RA,,0.27,WeatherDisplay:10.37,2013-04-24 12:11:00,
2013-04-24 08:16:00,53.8,50.6,29.77,South,186,7.2,10.4,89,0.00,-RA,,0.27,WeatherDisplay:10.37,2013-04-24 12:16:00,
2013-04-24 08:21:00,54.0,50.5,29.77,SSE,157,5.7,12.0,88,0.00,-RA,,0.27,WeatherDisplay:10.37,2013-04-24 12:21:00,
2013-04-24 08:26:00,54.2,50.7,29.76,South,184,8.3,13.8,88,0.00,-RA,,0.27,WeatherDisplay:10.37,2013-04-24 12:26:00,
2013-04-24 08:31:00,54.6,50.5,29.76,South,174,5.1,8.1,86,0.00,-RA,,0.27,WeatherDisplay:10.37,2013-04-24 12:31:00,
2013-04-24 08:36:00,55.0,50.6,29.76,South,187,6.0,12.7,85,0.00,-RA,,0.27,WeatherDisplay:10.37,2013-04-24 12:36:00,
2013-04-24 08:41:00,55.4,51.3,29.75,South,173,4.8,6.9,86,0.00,-RA,,0.27,WeatherDisplay:10.37,2013-04-24 12:41:00,
2013-04-24 08:46:00,55.8,51.4,29.76,South,171,6.3,18.0,85,0.00,-RA,,0.27,WeatherDisplay:10.37,2013-04-24 12:46:00,
2013-04-24 08:51:00,56.2,51.1,29.75,SSW,201,6.6,8.1,83,0.00,-RA,,0.27,WeatherDisplay:10.37,2013-04-24 12:51:00,
2013-04-24 08:56:00,56.5,51.1,29.75,SSE,149,10.6,19.6,82,0.00,-RA,,0.27,WeatherDisplay:10.37,2013-04-24 12:56:00,
2013-04-24 09:01:00,56.7,51.3,29.75,SSW,201,7.1,12.7,82,0.00,OVC,,0.27,WeatherDisplay:10.37,2013-04-24 13:01:00,
2013-04-24 09:06:00,56.8,51.0,29.75,SSW,199,4.6,8.0,81,0.00,OVC,,0.27,WeatherDisplay:10.37,2013-04-24 13:06:00,
2013-04-24 09:11:00,57.1,51.3,29.75,SSW,209,7.8,11.5,81,0.00,OVC,,0.27,WeatherDisplay:10.37,2013-04-24 13:11:00,
2013-04-24 09:16:00,57.3,51.9,29.75,SSW,200,7.9,15.0,82,0.00,OVC,,0.27,WeatherDisplay:10.37,2013-04-24 13:16:00,
2013-04-24 09:21:00,57.5,52.0,29.74,SSW,198,5.9,10.4,82,0.00,OVC,,0.27,WeatherDisplay:10.37,2013-04-24 13:21:00,
2013-04-24 09:26:00,57.6,52.1,29.74,SSW,209,5.7,8.1,82,0.00,OVC,,0.27,WeatherDisplay:10.37,2013-04-24 13:26:00,
2013-04-24 09:31:00,57.7,52.9,29.74,SSW,198,4.0,5.8,84,0.00,OVC,,0.27,WeatherDisplay:10.37,2013-04-24 13:31:00,
2013-04-24 09:36:00,57.7,52.9,29.75,South,180,5.2,6.9,84,0.00,OVC,,0.27,WeatherDisplay:10.37,2013-04-24 13:36:00,
2013-04-24 09:41:00,57.8,53.0,29.75,SSW,204,5.4,11.5,84,0.00,OVC,,0.27,WeatherDisplay:10.37,2013-04-24 13:41:00,
2013-04-24 09:46:00,57.8,52.7,29.74,SSW,200,4.6,8.1,83,0.00,OVC,,0.27,WeatherDisplay:10.37,2013-04-24 13:46:00,
2013-04-24 09:51:00,57.8,53.0,29.74,South,181,5.2,8.1,84,0.00,OVC,,0.27,WeatherDisplay:10.37,2013-04-24 13:51:00,
2013-04-24 09:56:00,57.7,52.9,29.74,SW,217,3.6,4.6,84,0.00,OVC,,0.27,WeatherDisplay:10.37,2013-04-24 13:56:00,
2013-04-24 10:01:00,57.6,52.8,29.74,SW,231,8.3,11.5,84,0.00,-RA,,0.27,WeatherDisplay:10.37,2013-04-24 14:01:00,
2013-04-24 10:06:00,57.6,52.8,29.73,South,177,4.9,8.1,84,0.00,-RA,,0.27,WeatherDisplay:10.37,2013-04-24 14:06:00,
2013-04-24 10:11:00,57.6,53.1,29.73,South,180,7.0,11.5,85,0.00,-RA,,0.27,WeatherDisplay:10.37,2013-04-24 14:11:00,
2013-04-24 10:16:00,57.8,53.3,29.72,SSW,207,5.2,8.1,85,0.00,-RA,,0.27,WeatherDisplay:10.37,2013-04-24 14:16:00,
2013-04-24 10:21:00,57.9,53.1,29.72,SW,218,4.9,9.2,84,0.00,-RA,,0.27,WeatherDisplay:10.37,2013-04-24 14:21:00,
2013-04-24 10:26:00,58.1,53.0,29.72,SSE,159,4.9,12.7,83,0.00,-RA,,0.27,WeatherDisplay:10.37,2013-04-24 14:26:00,
2013-04-24 10:31:00,58.3,53.2,29.73,WNW,284,4.3,9.2,83,0.00,-RA,,0.27,WeatherDisplay:10.37,2013-04-24 14:31:00,
2013-04-24 10:36:00,58.5,53.0,29.72,SSW,202,5.0,9.2,82,0.00,-RA,,0.27,WeatherDisplay:10.37,2013-04-24 14:36:00,
2013-04-24 10:41:00,58.7,53.2,29.72,SSW,198,8.5,11.5,82,0.00,-RA,,0.27,WeatherDisplay:10.37,2013-04-24 14:41:00,
2013-04-24 10:46:00,58.8,53.0,29.72,SSW,213,5.4,8.1,81,0.00,-RA,,0.27,WeatherDisplay:10.37,2013-04-24 14:46:00,
2013-04-24 10:51:00,59.0,53.2,29.71,SSW,196,6.3,11.5,81,0.00,-RA,,0.27,WeatherDisplay:10.37,2013-04-24 14:51:00,
2013-04-24 10:56:00,59.1,52.9,29.72,South,184,7.7,12.7,80,0.00,-RA,,0.27,WeatherDisplay:10.37,2013-04-24 14:56:00,
2013-04-24 11:01:00,59.2,53.0,29.73,SW,233,9.5,17.3,80,0.00,-RA,,0.27,WeatherDisplay:10.37,2013-04-24 15:01:00,
2013-04-24 11:09:00,59.3,53.5,29.73,SSW,199,7.0,12.7,81,0.00,-RA,,0.28,WeatherDisplay:10.37,2013-04-24 15:09:00,
2013-04-24 11:14:00,59.0,54.2,29.74,SW,229,5.5,11.5,84,0.03,-RA,,0.30,WeatherDisplay:10.37,2013-04-24 15:14:00,
2013-04-24 11:19:00,58.4,54.5,29.74,WSW,237,5.5,16.0,87,0.04,-RA,,0.32,WeatherDisplay:10.37,2013-04-24 15:19:00,
2013-04-24 11:24:00,57.7,54.5,29.73,South,175,6.6,8.1,89,0.07,-RA,,0.35,WeatherDisplay:10.37,2013-04-24 15:24:00,
2013-04-24 11:29:00,57.3,54.4,29.73,WSW,250,2.7,11.5,90,0.08,-RA,,0.36,WeatherDisplay:10.37,2013-04-24 15:29:00,
2013-04-24 11:34:00,57.0,54.4,29.72,South,169,7.5,11.5,91,0.10,-RA,,0.37,WeatherDisplay:10.37,2013-04-24 15:34:00,
2013-04-24 11:39:00,56.7,54.1,29.70,SSW,212,4.0,10.0,91,0.11,-RA,,0.38,WeatherDisplay:10.37,2013-04-24 15:39:00,
2013-04-24 11:44:00,56.6,54.3,29.70,South,169,3.1,3.5,92,0.12,-RA,,0.39,WeatherDisplay:10.37,2013-04-24 15:44:00,
2013-04-24 11:49:00,56.6,54.6,29.71,SSW,206,0.8,4.6,93,0.12,-RA,,0.39,WeatherDisplay:10.37,2013-04-24 15:49:00,
2013-04-24 11:54:00,56.5,54.8,29.71,SSW,206,3.8,9.2,94,0.12,-RA,,0.39,WeatherDisplay:10.37,2013-04-24 15:54:00,
2013-04-24 11:59:00,56.6,54.9,29.72,South,188,3.9,4.0,94,0.12,-RA,,0.39,WeatherDisplay:10.37,2013-04-24 15:59:00,
2013-04-24 12:04:00,56.6,54.9,29.72,South,188,3.5,8.1,94,0.12,-RA,,0.39,WeatherDisplay:10.37,2013-04-24 16:04:00,
2013-04-24 12:09:00,56.5,54.8,29.72,SSW,200,6.3,11.5,94,0.12,-RA,,0.39,WeatherDisplay:10.37,2013-04-24 16:09:00,
2013-04-24 12:14:00,56.5,54.8,29.72,SSW,196,4.0,6.9,94,0.09,-RA,,0.39,WeatherDisplay:10.37,2013-04-24 16:14:00,
2013-04-24 12:19:00,56.4,54.7,29.70,SSW,197,4.6,11.5,94,0.08,-RA,,0.39,WeatherDisplay:10.37,2013-04-24 16:19:00,
2013-04-24 12:24:00,56.5,54.8,29.69,South,176,6.1,9.2,94,0.05,-RA,,0.39,WeatherDisplay:10.37,2013-04-24 16:24:00,
2013-04-24 12:29:00,56.7,55.0,29.69,South,175,5.3,8.1,94,0.05,-RA,,0.40,WeatherDisplay:10.37,2013-04-24 16:29:00,
2013-04-24 12:34:00,57.0,55.6,29.69,SSW,202,3.8,7.0,95,0.03,-RA,,0.40,WeatherDisplay:10.37,2013-04-24 16:34:00,
2013-04-24 12:39:00,57.2,55.5,29.69,South,188,4.2,5.8,94,0.02,-RA,,0.40,WeatherDisplay:10.37,2013-04-24 16:39:00,
2013-04-24 12:44:00,57.4,55.7,29.69,SSW,209,4.7,6.9,94,0.01,-RA,,0.40,WeatherDisplay:10.37,2013-04-24 16:44:00,
2013-04-24 12:49:00,57.5,55.8,29.70,SW,218,3.8,6.0,94,0.02,-RA,,0.41,WeatherDisplay:10.37,2013-04-24 16:49:00,
2013-04-24 12:54:00,57.4,55.7,29.70,SSW,194,9.1,10.4,94,0.02,-RA,,0.41,WeatherDisplay:10.37,2013-04-24 16:54:00,
2013-04-24 12:59:00,57.4,55.7,29.70,South,170,6.0,10.4,94,0.03,-RA,,0.42,WeatherDisplay:10.37,2013-04-24 16:59:00,
2013-04-24 13:04:00,57.4,55.7,29.69,SSE,163,4.2,6.9,94,0.03,-RA,,0.43,WeatherDisplay:10.37,2013-04-24 17:04:00,
2013-04-24 13:09:00,57.4,55.7,29.69,SW,217,5.1,5.1,94,0.04,-RA,,0.43,WeatherDisplay:10.37,2013-04-24 17:09:00,
2013-04-24 13:14:00,57.5,56.1,29.69,SW,234,5.2,5.8,95,0.04,-RA,,0.43,WeatherDisplay:10.37,2013-04-24 17:14:00,
2013-04-24 13:19:00,57.5,56.1,29.69,SW,217,3.1,5.0,95,0.04,-RA,,0.43,WeatherDisplay:10.37,2013-04-24 17:19:00,
2013-04-24 13:24:00,57.5,56.1,29.69,SW,224,5.3,5.8,95,0.04,-RA,,0.43,WeatherDisplay:10.37,2013-04-24 17:24:00,
2013-04-24 13:29:00,57.5,56.1,29.69,SW,217,6.9,11.0,95,0.03,-RA,,0.43,WeatherDisplay:10.37,2013-04-24 17:29:00,
2013-04-24 13:34:00,57.5,56.1,29.70,WSW,242,4.6,10.4,95,0.05,-RA,,0.45,WeatherDisplay:10.37,2013-04-24 17:34:00,
2013-04-24 13:39:00,57.5,56.1,29.69,SSW,198,8.0,13.8,95,0.06,-RA,,0.47,WeatherDisplay:10.37,2013-04-24 17:39:00,
2013-04-24 13:44:00,57.4,56.0,29.67,SW,226,5.7,6.9,95,0.08,-RA,,0.48,WeatherDisplay:10.37,2013-04-24 17:44:00,
2013-04-24 13:49:00,57.4,56.3,29.67,SW,224,3.9,6.9,96,0.08,-RA,,0.49,WeatherDisplay:10.37,2013-04-24 17:49:00,
2013-04-24 13:54:00,57.4,56.3,29.67,SW,221,5.2,10.4,96,0.08,-RA,,0.49,WeatherDisplay:10.37,2013-04-24 17:54:00,
2013-04-24 13:59:00,57.3,56.2,29.67,SW,217,5.2,6.0,96,0.08,-RA,,0.50,WeatherDisplay:10.37,2013-04-24 17:59:00,
2013-04-24 14:04:00,57.2,56.1,29.68,SW,225,4.4,4.6,96,0.09,-RA,,0.51,WeatherDisplay:10.37,2013-04-24 18:04:00,
2013-04-24 14:09:00,57.2,56.1,29.69,WSW,255,8.8,15.0,96,0.11,-RA,,0.54,WeatherDisplay:10.37,2013-04-24 18:09:00,
2013-04-24 14:14:00,56.9,55.8,29.68,WSW,253,5.4,8.1,96,0.12,-RA,,0.55,WeatherDisplay:10.37,2013-04-24 18:14:00,
2013-04-24 14:19:00,56.6,55.5,29.68,WSW,253,0.0,2.3,96,0.12,-RA,,0.55,WeatherDisplay:10.37,2013-04-24 18:19:00,
2013-04-24 14:24:00,56.5,55.7,29.68,SW,232,2.9,3.5,97,0.12,-RA,,0.55,WeatherDisplay:10.37,2013-04-24 18:24:00,
2013-04-24 14:29:00,56.7,55.9,29.68,South,182,3.4,3.5,97,0.13,-RA,,0.56,WeatherDisplay:10.37,2013-04-24 18:29:00,
2013-04-24 14:34:00,56.9,56.3,29.67,SSW,203,5.9,9.2,98,0.12,-RA,,0.57,WeatherDisplay:10.37,2013-04-24 18:34:00,
2013-04-24 14:39:00,57.2,56.6,29.68,South,187,2.3,3.5,98,0.11,-RA,,0.57,WeatherDisplay:10.37,2013-04-24 18:39:00,
2013-04-24 14:44:00,57.4,56.8,29.67,SSW,207,1.8,5.8,98,0.09,-RA,,0.57,WeatherDisplay:10.37,2013-04-24 18:44:00,
2013-04-24 14:49:00,57.6,57.0,29.68,SSW,202,4.4,8.1,98,0.08,-RA,,0.57,WeatherDisplay:10.37,2013-04-24 18:49:00,
2013-04-24 14:54:00,57.7,57.1,29.67,WSW,239,5.7,10.4,98,0.08,-RA,,0.57,WeatherDisplay:10.37,2013-04-24 18:54:00,
2013-04-24 14:59:00,57.7,57.1,29.67,SW,230,4.0,5.8,98,0.07,-RA,,0.57,WeatherDisplay:10.37,2013-04-24 18:59:00,
2013-04-24 15:04:00,57.6,56.8,29.68,West,281,6.8,15.0,97,0.07,-RA,,0.58,WeatherDisplay:10.37,2013-04-24 19:04:00,
2013-04-24 15:09:00,56.1,53.2,29.69,North,349,6.4,9.2,90,0.05,-RA,,0.59,WeatherDisplay:10.37,2013-04-24 19:09:00,
2013-04-24 15:14:00,53.5,50.0,29.69,NNW,333,6.9,8.1,88,0.05,-RA,,0.60,WeatherDisplay:10.37,2013-04-24 19:14:00,
2013-04-24 15:19:00,51.2,48.1,29.68,NW,325,5.3,6.0,89,0.05,-RA,,0.60,WeatherDisplay:10.37,2013-04-24 19:19:00,
2013-04-24 15:24:00,49.4,46.3,29.70,NNW,331,6.7,10.4,89,0.06,-RA,,0.61,WeatherDisplay:10.37,2013-04-24 19:24:00,
2013-04-24 15:29:00,47.7,45.2,29.71,NNW,330,4.7,5.8,91,0.05,-RA,,0.61,WeatherDisplay:10.37,2013-04-24 19:29:00,
2013-04-24 15:34:00,46.0,43.2,29.74,WNW,286,7.6,18.4,90,0.04,-RA,,0.61,WeatherDisplay:10.37,2013-04-24 19:34:00,
2013-04-24 15:39:00,44.6,42.1,29.74,NW,321,7.1,11.5,91,0.04,-RA,,0.62,WeatherDisplay:10.37,2013-04-24 19:39:00,
2013-04-24 15:44:00,43.4,41.2,29.75,WNW,299,7.2,13.8,92,0.06,-RA,,0.63,WeatherDisplay:10.37,2013-04-24 19:44:00,
2013-04-24 15:49:00,42.6,40.7,29.76,WNW,303,6.7,11.5,93,0.08,-RA,,0.65,WeatherDisplay:10.37,2013-04-24 19:49:00,
2013-04-24 15:54:00,42.0,40.1,29.76,NW,311,5.1,6.9,93,0.08,-RA,,0.65,WeatherDisplay:10.37,2013-04-24 19:54:00,
2013-04-24 15:59:00,41.2,39.3,29.77,NNW,339,5.1,7.0,93,0.09,-RA,,0.66,WeatherDisplay:10.37,2013-04-24 19:59:00,
2013-04-24 16:04:00,40.7,39.1,29.77,NW,320,3.4,6.0,94,0.09,RA,,0.67,WeatherDisplay:10.37,2013-04-24 20:04:00,
2013-04-24 16:09:00,40.5,39.2,29.78,NW,324,3.5,6.0,95,0.08,RA,,0.67,WeatherDisplay:10.37,2013-04-24 20:09:00,
2013-04-24 16:14:00,40.2,38.9,29.78,NE,55,5.6,11.5,95,0.08,RA,,0.68,WeatherDisplay:10.37,2013-04-24 20:14:00,
2013-04-24 16:19:00,40.1,38.8,29.78,North,5,6.0,6.9,95,0.08,RA,,0.68,WeatherDisplay:10.37,2013-04-24 20:19:00,